| time (UTC) | temp F | wind direction | speed MPH | gust MPH | rain 1hr in | rain 24hr in | rain mn in | humidity % | barometer mb |
| 20260502152041 | 51 | 119 | 1.0 | 6.0 | 0.00 | 0.16 | 0.08 | 59 | 1038.1 |
| 20260502151542 | 51 | 60 | 2.0 | 6.0 | 0.00 | 0.16 | 0.08 | 56 | 1038.2 |
| 20260502151041 | 52 | 84 | 1.0 | 7.0 | 0.00 | 0.16 | 0.08 | 54 | 1038.1 |
| 20260502150541 | 51 | 108 | 1.0 | 7.0 | 0.00 | 0.16 | 0.08 | 60 | 1038.1 |
| 20260502130526 | 46 | 165 | 1.0 | 6.0 | 0.00 | 0.16 | 0.08 | 76 | 1038.7 |
| 20260502123524 | 46 | 75 | 1.0 | 6.0 | 0.00 | 0.16 | 0.08 | 80 | 1038.9 |
| 20260502123044 | 46 | 91 | 0.0 | 7.0 | 0.00 | 0.16 | 0.08 | 83 | 1038.9 |
| 20260502122523 | 45 | 75 | 0.0 | 7.0 | 0.00 | 0.16 | 0.08 | 84 | 1038.8 |
| 20260502122029 | 45 | 72 | 1.0 | 7.0 | 0.00 | 0.16 | 0.08 | 83 | 1038.9 |
| 20260502121523 | 45 | 77 | 1.0 | 6.0 | 0.00 | 0.16 | 0.08 | 82 | 1038.9 |
| 20260502121022 | 44 | 113 | 1.0 | 6.0 | 0.00 | 0.16 | 0.08 | 83 | 1038.9 |
| 20260502120525 | 44 | 82 | 1.0 | 6.0 | 0.00 | 0.16 | 0.08 | 83 | 1038.7 |
| 20260502115525 | 44 | 77 | 0.0 | 7.0 | 0.00 | 0.16 | 0.08 | 84 | 1038.8 |
| 20260502115020 | 44 | 81 | 2.0 | 7.0 | 0.00 | 0.16 | 0.08 | 84 | 1038.7 |
| 20260502114520 | 43 | 72 | 1.0 | 4.0 | 0.00 | 0.16 | 0.08 | 86 | 1038.8 |
| 20260502114019 | 43 | 70 | 0.0 | 3.0 | 0.00 | 0.16 | 0.08 | 87 | 1038.6 |
| 20260502113519 | 43 | 83 | 0.0 | 0.0 | 0.00 | 0.16 | 0.08 | 87 | 1038.6 |
| 20260502113018 | 43 | 76 | 0.0 | 0.0 | 0.00 | 0.16 | 0.08 | 89 | 1038.6 |
| 20260502112517 | 43 | 72 | 0.0 | 0.0 | 0.00 | 0.16 | 0.08 | 90 | 1038.7 |
| 20260502112019 | 42 | 72 | 0.0 | 0.0 | 0.00 | 0.16 | 0.08 | 91 | 1038.7 |
| 20260502111517 | 42 | 72 | 0.0 | 0.0 | 0.00 | 0.16 | 0.08 | 91 | 1038.7 |
| 20260502111016 | 41 | 72 | 0.0 | 2.0 | 0.00 | 0.16 | 0.08 | 93 | 1038.6 |
| 20260502110516 | 40 | 73 | 0.0 | 2.0 | 0.00 | 0.16 | 0.08 | 93 | 1038.6 |
| 20260502110016 | 39 | 94 | 0.0 | 1.0 | 0.00 | 0.16 | 0.08 | 93 | 1038.5 |
| 20260502105516 | 38 | 94 | 0.0 | 1.0 | 0.00 | 0.17 | 0.08 | 93 | 1038.5 |
| 20260502105014 | 37 | 94 | 0.0 | 0.0 | 0.00 | 0.17 | 0.08 | 93 | 1038.5 |
| 20260502104515 | 37 | 94 | 0.0 | 0.0 | 0.00 | 0.17 | 0.08 | 92 | 1038.4 |
| 20260502104014 | 37 | 94 | 0.0 | 0.0 | 0.00 | 0.17 | 0.08 | 92 | 1038.3 |
| 20260502103514 | 37 | 94 | 0.0 | 0.0 | 0.00 | 0.17 | 0.08 | 92 | 1038.4 |
| 20260502103015 | 37 | 94 | 0.0 | 0.0 | 0.00 | 0.17 | 0.08 | 92 | 1038.3 |
| 20260502102512 | 37 | 94 | 0.0 | 0.0 | 0.00 | 0.17 | 0.08 | 91 | 1038.2 |
| 20260502102021 | 37 | 94 | 0.0 | 0.0 | 0.00 | 0.17 | 0.08 | 91 | 1038.3 |
| 20260502101511 | 37 | 94 | 0.0 | 0.0 | 0.00 | 0.17 | 0.08 | 91 | 1038.2 |
| 20260502101015 | 37 | 94 | 0.0 | 0.0 | 0.00 | 0.17 | 0.08 | 91 | 1038.2 |
| 20260502100509 | 38 | 94 | 0.0 | 1.0 | 0.00 | 0.17 | 0.08 | 90 | 1038.2 |
| 20260502091058 | 41 | 122 | 1.0 | 6.0 | 0.00 | 0.17 | 0.08 | 88 | 1037.6 |
| 20260502090557 | 41 | 105 | 0.0 | 6.0 | 0.00 | 0.17 | 0.08 | 88 | 1037.5 |
| 20260502071038 | 45 | 66 | 0.0 | 6.0 | 0.03 | 0.14 | 0.05 | 93 | 1035.7 |
| 20260502070541 | 46 | 84 | 0.0 | 5.0 | 0.03 | 0.14 | 0.05 | 93 | 1035.7 |
| 20260502070037 | 46 | 77 | 1.0 | 5.0 | 0.02 | 0.13 | 0.04 | 94 | 1035.7 |
| 20260502065536 | 46 | 96 | 0.0 | 0.0 | 0.02 | 0.13 | 0.04 | 94 | 1035.7 |
| 20260502065036 | 46 | 96 | 0.0 | 0.0 | 0.01 | 0.12 | 0.03 | 94 | 1035.7 |
| 20260502064538 | 46 | 96 | 0.0 | 0.0 | 0.00 | 0.11 | 0.02 | 94 | 1035.7 |
| 20260502064035 | 46 | 97 | 0.0 | 0.0 | 0.00 | 0.11 | 0.02 | 94 | 1035.8 |
| 20260502063536 | 46 | 97 | 0.0 | 0.0 | 0.00 | 0.11 | 0.02 | 94 | 1035.9 |
| 20260502063050 | 46 | 97 | 0.0 | 0.0 | 0.00 | 0.11 | 0.02 | 94 | 1035.9 |
| 20260502062536 | 46 | 97 | 0.0 | 0.0 | 0.00 | 0.11 | 0.02 | 94 | 1036.0 |
| 20260502062033 | 46 | 96 | 0.0 | 0.0 | 0.00 | 0.11 | 0.02 | 94 | 1036.0 |
| 20260502061535 | 46 | 97 | 0.0 | 0.0 | 0.00 | 0.11 | 0.02 | 93 | 1035.9 |
| 20260502061033 | 46 | 97 | 0.0 | 0.0 | 0.00 | 0.11 | 0.02 | 93 | 1036.1 |
| 20260502060533 | 46 | 96 | 0.0 | 0.0 | 0.00 | 0.11 | 0.02 | 93 | 1035.9 |
| 20260502060031 | 46 | 97 | 0.0 | 0.0 | 0.00 | 0.11 | 0.02 | 93 | 1036.1 |
| 20260502055530 | 46 | 96 | 0.0 | 0.0 | 0.01 | 0.11 | 0.02 | 93 | 1036.2 |
| 20260502055032 | 47 | 97 | 0.0 | 0.0 | 0.01 | 0.11 | 0.02 | 93 | 1036.1 |
| 20260502054529 | 47 | 97 | 0.0 | 0.0 | 0.01 | 0.11 | 0.02 | 93 | 1036.4 |
| 20260502054030 | 47 | 96 | 0.0 | 0.0 | 0.01 | 0.11 | 0.02 | 93 | 1036.5 |
| 20260502053530 | 47 | 97 | 0.0 | 0.0 | 0.01 | 0.11 | 0.02 | 93 | 1036.5 |
| 20260502053027 | 47 | 97 | 0.0 | 0.0 | 0.01 | 0.11 | 0.02 | 93 | 1036.7 |
| 20260502052527 | 47 | 97 | 0.0 | 0.0 | 0.01 | 0.11 | 0.02 | 93 | 1036.6 |
| 20260502052027 | 47 | 97 | 0.0 | 0.0 | 0.01 | 0.11 | 0.02 | 93 | 1036.7 |
| 20260502051530 | 47 | 96 | 0.0 | 0.0 | 0.01 | 0.11 | 0.02 | 93 | 1036.8 |
| 20260502051027 | 47 | 97 | 0.0 | 0.0 | 0.01 | 0.11 | 0.02 | 93 | 1036.8 |
| 20260502050526 | 47 | 97 | 0.0 | 0.0 | 0.01 | 0.11 | 0.02 | 93 | 1036.8 |
| 20260502050033 | 47 | 97 | 0.0 | 0.0 | 0.02 | 0.11 | 0.02 | 93 | 1036.8 |
| 20260502045526 | 47 | 97 | 0.0 | 0.0 | 0.01 | 0.10 | 0.01 | 93 | 1036.8 |
| 20260502045029 | 47 | 97 | 0.0 | 0.0 | 0.01 | 0.10 | 0.01 | 93 | 1036.7 |
| 20260502044525 | 47 | 97 | 0.0 | 0.0 | 0.01 | 0.10 | 0.01 | 93 | 1036.8 |
| 20260502044025 | 47 | 97 | 0.0 | 0.0 | 0.01 | 0.10 | 0.01 | 93 | 1036.9 |
| 20260502043526 | 47 | 96 | 0.0 | 0.0 | 0.01 | 0.10 | 0.01 | 93 | 1037.0 |
| 20260502043024 | 47 | 96 | 0.0 | 0.0 | 0.02 | 0.10 | 0.01 | 93 | 1036.7 |
| 20260502042523 | 47 | 97 | 0.0 | 0.0 | 0.02 | 0.10 | 0.01 | 93 | 1036.7 |
| 20260502042023 | 47 | 97 | 0.0 | 0.0 | 0.02 | 0.10 | 0.01 | 93 | 1036.7 |
| 20260502041527 | 47 | 97 | 0.0 | 0.0 | 0.03 | 0.10 | 0.01 | 93 | 1036.8 |
| 20260502041021 | 47 | 97 | 0.0 | 0.0 | 0.04 | 0.10 | 0.01 | 93 | 1036.8 |
| 20260502040521 | 47 | 97 | 0.0 | 0.0 | 0.04 | 0.10 | 0.01 | 93 | 1036.9 |
| 20260502040020 | 47 | 97 | 0.0 | 0.0 | 0.03 | 0.09 | 0.00 | 93 | 1036.8 |
| 20260502035519 | 47 | 97 | 0.0 | 0.0 | 0.03 | 0.09 | 0.09 | 93 | 1037.0 |
| 20260502035019 | 47 | 97 | 0.0 | 0.0 | 0.03 | 0.09 | 0.09 | 93 | 1036.8 |
| 20260502034522 | 47 | 97 | 0.0 | 0.0 | 0.03 | 0.09 | 0.09 | 93 | 1036.8 |
| 20260502034019 | 47 | 97 | 0.0 | 0.0 | 0.03 | 0.09 | 0.09 | 93 | 1036.8 |
| 20260502033518 | 47 | 97 | 0.0 | 0.0 | 0.03 | 0.09 | 0.09 | 93 | 1036.7 |
| 20260502033020 | 47 | 97 | 0.0 | 0.0 | 0.02 | 0.08 | 0.08 | 93 | 1036.9 |
| 20260502032518 | 47 | 97 | 0.0 | 0.0 | 0.02 | 0.08 | 0.08 | 93 | 1036.7 |
| 20260502032019 | 47 | 97 | 0.0 | 0.0 | 0.02 | 0.08 | 0.08 | 93 | 1036.8 |
| 20260502031518 | 47 | 97 | 0.0 | 0.0 | 0.01 | 0.07 | 0.07 | 93 | 1036.9 |
| 20260502031018 | 47 | 97 | 0.0 | 0.0 | 0.00 | 0.06 | 0.06 | 93 | 1036.9 |
| 20260502030518 | 47 | 97 | 0.0 | 0.0 | 0.00 | 0.06 | 0.06 | 92 | 1036.8 |
| 20260502030025 | 47 | 97 | 0.0 | 0.0 | 0.00 | 0.06 | 0.06 | 92 | 1036.8 |
| 20260502025518 | 47 | 97 | 0.0 | 0.0 | 0.00 | 0.06 | 0.06 | 92 | 1036.8 |
| 20260502025017 | 47 | 97 | 0.0 | 0.0 | 0.00 | 0.06 | 0.06 | 92 | 1036.8 |
| 20260502024517 | 47 | 97 | 0.0 | 0.0 | 0.00 | 0.06 | 0.06 | 92 | 1036.7 |
| 20260502024017 | 47 | 97 | 0.0 | 0.0 | 0.00 | 0.06 | 0.06 | 92 | 1036.9 |
| 20260502023516 | 47 | 97 | 0.0 | 0.0 | 0.00 | 0.06 | 0.06 | 92 | 1036.9 |
| 20260502023016 | 47 | 97 | 0.0 | 0.0 | 0.01 | 0.06 | 0.06 | 92 | 1036.8 |
| 20260502022517 | 47 | 97 | 0.0 | 0.0 | 0.01 | 0.06 | 0.06 | 92 | 1037.0 |
| 20260502022015 | 47 | 97 | 0.0 | 0.0 | 0.01 | 0.06 | 0.06 | 92 | 1037.0 |
| 20260502021515 | 47 | 97 | 0.0 | 0.0 | 0.01 | 0.06 | 0.06 | 92 | 1037.0 |
| 20260502021015 | 47 | 97 | 0.0 | 0.0 | 0.01 | 0.06 | 0.06 | 92 | 1037.0 |
| 20260502020517 | 47 | 97 | 0.0 | 0.0 | 0.01 | 0.06 | 0.06 | 92 | 1037.0 |
| 20260502020015 | 47 | 97 | 0.0 | 0.0 | 0.01 | 0.06 | 0.06 | 92 | 1036.9 |
| 20260502015515 | 47 | 97 | 0.0 | 0.0 | 0.01 | 0.06 | 0.06 | 91 | 1037.0 |
| 20260502015015 | 47 | 97 | 0.0 | 0.0 | 0.01 | 0.06 | 0.06 | 91 | 1036.9 |
| 20260502014514 | 47 | 97 | 0.0 | 0.0 | 0.01 | 0.06 | 0.06 | 91 | 1036.8 |
| 20260502014014 | 47 | 97 | 0.0 | 0.0 | 0.01 | 0.06 | 0.06 | 91 | 1036.8 |
| 20260502013514 | 47 | 97 | 0.0 | 0.0 | 0.01 | 0.06 | 0.06 | 91 | 1036.8 |
| 20260502013014 | 47 | 97 | 0.0 | 0.0 | 0.01 | 0.05 | 0.05 | 91 | 1036.6 |
| 20260502012517 | 47 | 97 | 0.0 | 0.0 | 0.01 | 0.05 | 0.05 | 91 | 1036.6 |
| 20260502012015 | 47 | 97 | 0.0 | 0.0 | 0.01 | 0.05 | 0.05 | 91 | 1036.6 |
| 20260502011518 | 47 | 97 | 0.0 | 0.0 | 0.01 | 0.05 | 0.05 | 91 | 1036.5 |
| 20260502011012 | 47 | 97 | 0.0 | 0.0 | 0.01 | 0.05 | 0.05 | 91 | 1036.4 |
| 20260502010512 | 47 | 97 | 0.0 | 0.0 | 0.01 | 0.05 | 0.05 | 91 | 1036.3 |
| 20260502010019 | 47 | 97 | 0.0 | 0.0 | 0.01 | 0.05 | 0.05 | 91 | 1036.3 |
| 20260502005512 | 47 | 97 | 0.0 | 0.0 | 0.01 | 0.05 | 0.05 | 91 | 1036.2 |
| 20260502005012 | 47 | 97 | 0.0 | 0.0 | 0.01 | 0.05 | 0.05 | 91 | 1036.2 |
| 20260502004538 | 47 | 97 | 0.0 | 0.0 | 0.01 | 0.05 | 0.05 | 90 | 1036.2 |
| 20260502004012 | 47 | 97 | 0.0 | 0.0 | 0.01 | 0.05 | 0.05 | 90 | 1036.2 |
| 20260502003512 | 47 | 97 | 0.0 | 0.0 | 0.00 | 0.04 | 0.04 | 90 | 1036.1 |
| 20260502003011 | 47 | 97 | 0.0 | 0.0 | 0.00 | 0.04 | 0.04 | 90 | 1036.0 |
| 20260502002511 | 48 | 97 | 0.0 | 1.0 | 0.00 | 0.04 | 0.04 | 90 | 1036.1 |
| 20260502002013 | 48 | 97 | 0.0 | 1.0 | 0.00 | 0.04 | 0.04 | 90 | 1036.2 |
| 20260502001511 | 48 | 97 | 0.0 | 1.0 | 0.01 | 0.04 | 0.04 | 90 | 1036.1 |
| 20260502001011 | 48 | 97 | 0.0 | 1.0 | 0.01 | 0.04 | 0.04 | 90 | 1035.9 |
| 20260502000510 | 48 | 97 | 0.0 | 0.0 | 0.01 | 0.04 | 0.04 | 89 | 1036.0 |
| 20260502000010 | 48 | 98 | 0.0 | 0.0 | 0.01 | 0.04 | 0.04 | 89 | 1035.9 |
| 20260501235510 | 47 | 98 | 0.0 | 0.0 | 0.02 | 0.07 | 0.04 | 89 | 1035.9 |
| 20260501235010 | 48 | 98 | 0.0 | 0.0 | 0.02 | 0.07 | 0.04 | 88 | 1035.6 |
| 20260501234510 | 48 | 98 | 0.0 | 0.0 | 0.02 | 0.07 | 0.04 | 88 | 1035.7 |
| 20260501234013 | 48 | 98 | 0.0 | 0.0 | 0.03 | 0.07 | 0.04 | 88 | 1035.7 |
| 20260501233510 | 48 | 98 | 0.0 | 0.0 | 0.03 | 0.07 | 0.04 | 88 | 1035.8 |
| 20260501233010 | 48 | 98 | 0.0 | 0.0 | 0.03 | 0.07 | 0.04 | 88 | 1035.7 |
| 20260501232511 | 48 | 98 | 0.0 | 0.0 | 0.03 | 0.07 | 0.04 | 88 | 1035.6 |
| 20260501232014 | 48 | 89 | 0.0 | 0.0 | 0.03 | 0.07 | 0.04 | 87 | 1035.5 |
| 20260501231515 | 48 | 89 | 0.0 | 0.0 | 0.02 | 0.06 | 0.03 | 86 | 1035.8 |
| 20260501231008 | 49 | 89 | 0.0 | 0.0 | 0.02 | 0.06 | 0.03 | 86 | 1035.9 |
| 20260501230511 | 49 | 89 | 0.0 | 2.0 | 0.02 | 0.06 | 0.03 | 86 | 1036.0 |
| 20260501230009 | 49 | 89 | 0.0 | 3.0 | 0.01 | 0.05 | 0.02 | 85 | 1036.0 |
| 20260501225510 | 49 | 77 | 0.0 | 3.0 | 0.01 | 0.06 | 0.02 | 85 | 1035.9 |
| 20260501225008 | 49 | 103 | 0.0 | 6.0 | 0.01 | 0.06 | 0.02 | 84 | 1036.1 |
| 20260501224509 | 50 | 72 | 2.0 | 6.0 | 0.01 | 0.06 | 0.02 | 82 | 1035.9 |
| 20260501224008 | 50 | 77 | 2.0 | 10.0 | 0.00 | 0.05 | 0.01 | 81 | 1036.1 |
| 20260501223511 | 50 | 69 | 0.0 | 10.0 | 0.00 | 0.05 | 0.01 | 80 | 1036.0 |
| 20260501223010 | 51 | 86 | 0.0 | 8.0 | 0.00 | 0.05 | 0.01 | 79 | 1035.8 |
| 20260501222508 | 51 | 86 | 1.0 | 8.0 | 0.00 | 0.05 | 0.01 | 77 | 1035.8 |
| 20260501222007 | 51 | 69 | 3.0 | 8.0 | 0.00 | 0.05 | 0.01 | 76 | 1035.8 |
| 20260501221506 | 52 | 78 | 0.0 | 7.0 | 0.00 | 0.05 | 0.01 | 77 | 1035.8 |
| 20260501221006 | 52 | 77 | 1.0 | 8.0 | 0.00 | 0.05 | 0.01 | 75 | 1035.8 |
| 20260501220506 | 52 | 86 | 2.0 | 8.0 | 0.00 | 0.05 | 0.01 | 74 | 1035.6 |
| 20260501220006 | 53 | 71 | 0.0 | 9.0 | 0.00 | 0.05 | 0.01 | 72 | 1035.6 |
| 20260501215506 | 53 | 85 | 1.0 | 9.0 | 0.00 | 0.07 | 0.01 | 70 | 1035.5 |
| 20260501215006 | 54 | 81 | 1.0 | 9.0 | 0.00 | 0.07 | 0.01 | 69 | 1035.5 |
| 20260501214512 | 54 | 87 | 3.0 | 9.0 | 0.00 | 0.07 | 0.01 | 67 | 1035.4 |
| 20260501214009 | 54 | 73 | 2.0 | 9.0 | 0.00 | 0.07 | 0.01 | 68 | 1035.3 |
| 20260501213505 | 55 | 113 | 2.0 | 9.0 | 0.00 | 0.07 | 0.01 | 66 | 1035.2 |
| 20260501213015 | 55 | 89 | 2.0 | 5.0 | 0.00 | 0.07 | 0.01 | 65 | 1035.0 |
| 20260501212505 | 55 | 70 | 0.0 | 5.0 | 0.00 | 0.07 | 0.01 | 64 | 1034.9 |
| 20260501212004 | 56 | 133 | 0.0 | 5.0 | 0.00 | 0.07 | 0.01 | 64 | 1034.9 |
| 20260501211504 | 56 | 68 | 0.0 | 5.0 | 0.00 | 0.07 | 0.01 | 62 | 1034.7 |
| 20260501211003 | 56 | 67 | 0.0 | 10.0 | 0.00 | 0.07 | 0.01 | 64 | 1034.6 |
| 20260501210503 | 55 | 79 | 0.0 | 10.0 | 0.00 | 0.07 | 0.01 | 63 | 1034.7 |
| 20260501210005 | 55 | 96 | 0.0 | 6.0 | 0.00 | 0.07 | 0.01 | 64 | 1034.7 |
| 20260501205507 | 55 | 79 | 2.0 | 7.0 | 0.00 | 0.07 | 0.01 | 62 | 1034.7 |
| 20260501205004 | 56 | 67 | 0.0 | 7.0 | 0.00 | 0.07 | 0.01 | 63 | 1034.6 |
| 20260501204503 | 56 | 70 | 2.0 | 7.0 | 0.00 | 0.07 | 0.01 | 60 | 1034.5 |
| 20260501204003 | 57 | 74 | 3.0 | 17.0 | 0.00 | 0.07 | 0.01 | 58 | 1034.5 |
| 20260501203503 | 57 | 109 | 1.0 | 17.0 | 0.00 | 0.07 | 0.01 | 55 | 1034.4 |
| 20260501203003 | 58 | 82 | 4.0 | 13.0 | 0.00 | 0.07 | 0.01 | 52 | 1034.2 |
| 20260501202503 | 58 | 72 | 2.0 | 4.0 | 0.00 | 0.07 | 0.01 | 52 | 1034.2 |
| 20260501202002 | 59 | 72 | 0.0 | 3.0 | 0.00 | 0.07 | 0.01 | 54 | 1034.3 |
| 20260501201501 | 59 | 101 | 0.0 | 3.0 | 0.00 | 0.07 | 0.01 | 53 | 1034.3 |
| 20260501201100 | 59 | 83 | 1.0 | 4.0 | 0.00 | 0.07 | 0.01 | 52 | 1034.4 |
| 20260501200600 | 59 | 84 | 1.0 | 4.0 | 0.00 | 0.07 | 0.01 | 51 | 1034.5 |
| 20260501200059 | 59 | 88 | 0.0 | 2.0 | 0.00 | 0.07 | 0.01 | 53 | 1034.5 |
| 20260501195602 | 59 | 85 | 0.0 | 2.0 | 0.00 | 0.07 | 0.01 | 51 | 1034.6 |
| 20260501195059 | 59 | 85 | 0.0 | 4.0 | 0.00 | 0.07 | 0.01 | 52 | 1034.6 |
| 20260501194601 | 59 | 114 | 0.0 | 6.0 | 0.00 | 0.07 | 0.01 | 54 | 1034.6 |
| 20260501194057 | 59 | 115 | 3.0 | 6.0 | 0.00 | 0.07 | 0.01 | 50 | 1034.7 |
| 20260501193557 | 59 | 82 | 0.0 | 4.0 | 0.00 | 0.07 | 0.01 | 53 | 1034.9 |
| 20260501193110 | 59 | 267 | 0.0 | 4.0 | 0.00 | 0.07 | 0.01 | 51 | 1034.8 |
| 20260501192556 | 60 | 86 | 1.0 | 4.0 | 0.00 | 0.07 | 0.01 | 51 | 1034.8 |
| 20260501192056 | 60 | 99 | 1.0 | 4.0 | 0.00 | 0.07 | 0.01 | 52 | 1034.9 |
| 20260501191556 | 61 | 79 | 1.0 | 5.0 | 0.00 | 0.07 | 0.01 | 47 | 1034.9 |
| 20260501191057 | 62 | 80 | 0.0 | 5.0 | 0.00 | 0.07 | 0.01 | 49 | 1034.9 |
| 20260501190556 | 62 | 83 | 1.0 | 4.0 | 0.00 | 0.07 | 0.01 | 47 | 1035.0 |
| 20260501190128 | 62 | 110 | 0.0 | 9.0 | 0.00 | 0.07 | 0.01 | 50 | 1035.1 |
| 20260501185553 | 62 | 89 | 3.0 | 9.0 | 0.00 | 0.07 | 0.01 | 46 | 1035.1 |
| 20260501185054 | 62 | 109 | 0.0 | 5.0 | 0.00 | 0.07 | 0.01 | 51 | 1035.2 |
| 20260501184607 | 61 | 269 | 1.0 | 5.0 | 0.00 | 0.07 | 0.01 | 50 | 1035.2 |
| 20260501184050 | 61 | 98 | 0.0 | 5.0 | 0.00 | 0.07 | 0.01 | 49 | 1035.3 |
| 20260501183550 | 60 | 251 | 1.0 | 5.0 | 0.00 | 0.07 | 0.01 | 54 | 1035.4 |
| 20260501183049 | 60 | 214 | 2.0 | 4.0 | 0.00 | 0.07 | 0.01 | 50 | 1035.4 |
| 20260501182547 | 59 | 102 | 0.0 | 4.0 | 0.00 | 0.07 | 0.01 | 55 | 1035.4 |
| 20260501182046 | 59 | 199 | 0.0 | 6.0 | 0.00 | 0.07 | 0.01 | 54 | 1035.5 |
| 20260501181547 | 59 | 248 | 1.0 | 6.0 | 0.00 | 0.07 | 0.01 | 52 | 1035.6 |
| 20260501181046 | 60 | 287 | 1.0 | 7.0 | 0.00 | 0.07 | 0.01 | 52 | 1035.6 |
| 20260501180549 | 60 | 142 | 2.0 | 7.0 | 0.00 | 0.07 | 0.01 | 57 | 1035.7 |
| 20260501180059 | 60 | 191 | 1.0 | 7.0 | 0.00 | 0.07 | 0.01 | 51 | 1035.7 |
| 20260501175544 | 59 | 284 | 2.0 | 7.0 | 0.00 | 0.07 | 0.01 | 53 | 1035.7 |
| 20260501175043 | 58 | 89 | 0.0 | 3.0 | 0.00 | 0.07 | 0.01 | 50 | 1035.8 |
| 20260501174547 | 58 | 291 | 0.0 | 3.0 | 0.00 | 0.07 | 0.01 | 50 | 1035.9 |
| 20260501174043 | 58 | 193 | 1.0 | 6.0 | 0.00 | 0.07 | 0.01 | 52 | 1035.9 |
| 20260501173542 | 58 | 256 | 2.0 | 6.0 | 0.00 | 0.07 | 0.01 | 51 | 1036.0 |
| 20260501173042 | 58 | 78 | 0.0 | 5.0 | 0.00 | 0.07 | 0.01 | 54 | 1036.0 |
| 20260501172542 | 57 | 271 | 1.0 | 5.0 | 0.00 | 0.07 | 0.01 | 51 | 1036.1 |
| 20260501172039 | 57 | 78 | 0.0 | 5.0 | 0.00 | 0.07 | 0.01 | 52 | 1036.1 |
| 20260501171539 | 57 | 89 | 2.0 | 4.0 | 0.00 | 0.07 | 0.01 | 51 | 1036.2 |
| 20260501171039 | 58 | 98 | 1.0 | 8.0 | 0.00 | 0.07 | 0.01 | 52 | 1036.2 |
| 20260501170539 | 58 | 78 | 2.0 | 8.0 | 0.00 | 0.07 | 0.01 | 52 | 1036.2 |
| 20260501170049 | 58 | 103 | 2.0 | 7.0 | 0.00 | 0.07 | 0.01 | 48 | 1036.2 |
| 20260501165538 | 58 | 93 | 2.0 | 5.0 | 0.00 | 0.07 | 0.01 | 47 | 1036.4 |
| 20260501165039 | 59 | 68 | 1.0 | 6.0 | 0.00 | 0.07 | 0.01 | 49 | 1036.5 |
| 20260501164536 | 59 | 95 | 2.0 | 6.0 | 0.00 | 0.07 | 0.01 | 52 | 1036.5 |
| 20260501164036 | 59 | 90 | 1.0 | 4.0 | 0.00 | 0.07 | 0.01 | 52 | 1036.6 |
| 20260501163536 | 58 | 87 | 0.0 | 7.0 | 0.00 | 0.07 | 0.01 | 54 | 1036.8 |
| 20260501163036 | 58 | 106 | 2.0 | 7.0 | 0.00 | 0.07 | 0.01 | 47 | 1036.8 |
| 20260501162534 | 58 | 86 | 0.0 | 6.0 | 0.00 | 0.07 | 0.01 | 53 | 1036.8 |
| 20260501162033 | 57 | 88 | 1.0 | 10.0 | 0.00 | 0.07 | 0.01 | 49 | 1036.9 |
| 20260501161538 | 56 | 103 | 2.0 | 10.0 | 0.00 | 0.07 | 0.01 | 51 | 1036.9 |
| 20260501161034 | 56 | 84 | 0.0 | 10.0 | 0.00 | 0.07 | 0.01 | 52 | 1037.1 |
| 20260501160530 | 56 | 67 | 3.0 | 10.0 | 0.00 | 0.07 | 0.01 | 50 | 1037.3 |
| 20260501160035 | 56 | 85 | 0.0 | 7.0 | 0.00 | 0.07 | 0.01 | 45 | 1037.2 |
| 20260501155530 | 56 | 84 | 1.0 | 7.0 | 0.00 | 0.07 | 0.01 | 47 | 1037.3 |
| 20260501155031 | 57 | 70 | 1.0 | 7.0 | 0.00 | 0.07 | 0.01 | 48 | 1037.4 |
| 20260501154530 | 57 | 84 | 1.0 | 8.0 | 0.00 | 0.07 | 0.01 | 52 | 1037.5 |
| 20260501154028 | 56 | 90 | 1.0 | 8.0 | 0.00 | 0.07 | 0.01 | 56 | 1037.5 |
| 20260501153531 | 56 | 91 | 1.0 | 6.0 | 0.00 | 0.07 | 0.01 | 54 | 1037.7 |
| 20260501153027 | 55 | 165 | 2.0 | 7.0 | 0.00 | 0.07 | 0.01 | 52 | 1037.7 |